ELY289 LLBG-LIPZ

Flight info

Callsign ELY289
Flight time 3h 32m
Altitude 34000
Route SUVAS L53 ANIDE DCT RIPLI/N0449F360 DCT TALAS DCT ENFAR DCT POD DCT INTIT DCT VELIT DCT IPKIS DCT LABIN Z122 BASOG
Aircraft B738/M-SDE2E3FGHIRWXY/LB1

Departure

Time 2026-05-06 10:58
Airport Ben Gurion International Airport (LLBG)

Arrival

Time 2026-05-06 14:31
Airport Venice Marco Polo Airport (LIPZ)
Time Latitude Longitude Altitude Speed Heading
2026-05-06 10:27 32.00554 34.87526 116 ft 0 kts 279°
2026-05-06 10:47 32.00550 34.87555 115 ft 4 kts 279°
2026-05-06 10:47 32.00545 34.87586 117 ft 4 kts 279°
2026-05-06 10:47 32.00541 34.87618 117 ft 4 kts 277°
2026-05-06 10:48 32.00539 34.87644 115 ft 3 kts 278°
2026-05-06 10:48 32.00530 34.87671 116 ft 4 kts 315°
2026-05-06 10:48 32.00508 34.87689 115 ft 4 kts 338°
2026-05-06 10:48 32.00489 34.87696 116 ft 0 kts 347°
2026-05-06 10:52 32.00505 34.87692 119 ft 11 kts 347°
2026-05-06 10:52 32.00582 34.87702 115 ft 12 kts 26°
2026-05-06 10:53 32.00634 34.87765 117 ft 11 kts 90°
2026-05-06 10:53 32.00595 34.87845 118 ft 11 kts 124°
2026-05-06 10:53 32.00602 34.87926 116 ft 11 kts 44°
2026-05-06 10:53 32.00672 34.87978 117 ft 17 kts 33°
2026-05-06 10:54 32.00800 34.88072 116 ft 22 kts 30°
2026-05-06 10:54 32.00929 34.88166 118 ft 22 kts 33°
2026-05-06 10:54 32.01054 34.88256 117 ft 21 kts 31°
2026-05-06 10:54 32.01195 34.88357 116 ft 23 kts 32°
2026-05-06 10:55 32.01318 34.88469 116 ft 20 kts 43°
2026-05-06 10:55 32.01405 34.88593 118 ft 19 kts 54°
2026-05-06 10:55 32.01464 34.88731 115 ft 19 kts 67°
2026-05-06 10:55 32.01502 34.88873 117 ft 18 kts 78°
2026-05-06 10:56 32.01519 34.89016 117 ft 17 kts 82°
2026-05-06 10:56 32.01544 34.89136 119 ft 10 kts 57°
2026-05-06 10:56 32.01608 34.89150 116 ft 10 kts
2026-05-06 10:56 32.01647 34.89149 116 ft 0 kts 354°
2026-05-06 10:57 32.01648 34.89149 116 ft 1 kts 354°
2026-05-06 10:57 32.01717 34.89132 116 ft 13 kts 333°
2026-05-06 10:57 32.01741 34.89057 118 ft 0 kts 260°
2026-05-06 10:57 32.01740 34.89054 118 ft 4 kts 260°
2026-05-06 10:58 32.01699 34.88783 118 ft 70 kts 259°
2026-05-06 10:58 32.01571 34.87952 116 ft 135 kts 259°
2026-05-06 10:58 32.01375 34.86677 298 ft 173 kts 261°
2026-05-06 10:58 32.01166 34.85203 830 ft 192 kts 261°
2026-05-06 10:59 32.00881 34.83725 1871 ft 176 kts 258°
2026-05-06 10:59 32.00580 34.82329 2772 ft 176 kts 257°
2026-05-06 10:59 32.00274 34.80898 3454 ft 189 kts 256°
2026-05-06 10:59 31.99938 34.79317 3721 ft 214 kts 256°
2026-05-06 11:00 31.99559 34.77537 4035 ft 232 kts 256°
2026-05-06 11:00 31.99194 34.75644 4614 ft 243 kts 262°
2026-05-06 11:00 31.99485 34.73606 5080 ft 263 kts 289°
2026-05-06 11:00 32.00148 34.71590 5957 ft 264 kts 290°
2026-05-06 11:01 32.00800 34.69543 6711 ft 270 kts 289°
2026-05-06 11:01 32.01454 34.67463 7478 ft 272 kts 289°
2026-05-06 11:01 32.02104 34.65384 7861 ft 270 kts 289°
2026-05-06 11:01 32.02700 34.63265 8038 ft 273 kts 279°
2026-05-06 11:02 32.02835 34.61025 8556 ft 276 kts 271°
2026-05-06 11:02 32.02921 34.58773 9468 ft 273 kts 272°
2026-05-06 11:02 32.03031 34.56565 10303 ft 274 kts 274°
2026-05-06 11:02 32.03387 34.54289 10591 ft 295 kts 284°
2026-05-06 11:03 32.03984 34.51872 10780 ft 318 kts 286°
2026-05-06 11:03 32.04661 34.49307 10983 ft 337 kts 286°
2026-05-06 11:03 32.05366 34.46629 11491 ft 346 kts 286°
2026-05-06 11:03 32.06073 34.43888 12151 ft 349 kts 286°
2026-05-06 11:04 32.06768 34.41135 12872 ft 350 kts 285°
2026-05-06 11:04 32.07452 34.38383 13577 ft 352 kts 285°
2026-05-06 11:04 32.08138 34.35592 14209 ft 355 kts 285°
2026-05-06 11:04 32.08824 34.32780 14829 ft 356 kts 285°
2026-05-06 11:05 32.09508 34.29966 15505 ft 357 kts 285°
2026-05-06 11:05 32.10190 34.27151 16146 ft 358 kts 285°
2026-05-06 11:05 32.10877 34.24314 16764 ft 360 kts 285°
2026-05-06 11:05 32.11557 34.21503 17369 ft 362 kts 285°
2026-05-06 11:06 32.12248 34.18640 17961 ft 363 kts 285°
2026-05-06 11:06 32.12941 34.15768 18538 ft 365 kts 285°
2026-05-06 11:06 32.13637 34.12882 19048 ft 367 kts 285°
2026-05-06 11:06 32.14336 34.09978 19576 ft 368 kts 285°
2026-05-06 11:07 32.15036 34.07069 20115 ft 369 kts 285°
2026-05-06 11:07 32.15737 34.04152 20638 ft 370 kts 285°
2026-05-06 11:07 32.16442 34.01214 21156 ft 372 kts 285°
2026-05-06 11:07 32.17264 33.98317 21635 ft 375 kts 292°
2026-05-06 11:08 32.18404 33.95533 22117 ft 377 kts 294°
2026-05-06 11:08 32.19575 33.92748 22588 ft 379 kts 294°
2026-05-06 11:08 32.20749 33.89948 23043 ft 381 kts 294°
2026-05-06 11:08 32.21922 33.87136 23493 ft 383 kts 294°
2026-05-06 11:09 32.23098 33.84307 23895 ft 384 kts 294°
2026-05-06 11:09 32.24276 33.81463 24252 ft 386 kts 294°
2026-05-06 11:09 32.25455 33.78609 24607 ft 388 kts 293°
2026-05-06 11:09 32.26642 33.75731 24960 ft 390 kts 293°
2026-05-06 11:10 32.27832 33.72841 25319 ft 392 kts 293°
2026-05-06 11:10 32.29011 33.69975 25662 ft 393 kts 293°
2026-05-06 11:10 32.30212 33.67052 25996 ft 395 kts 293°
2026-05-06 11:10 32.31419 33.64115 26291 ft 398 kts 293°
2026-05-06 11:11 32.32635 33.61150 26605 ft 400 kts 293°
2026-05-06 11:11 32.33856 33.58172 26927 ft 402 kts 293°
2026-05-06 11:11 32.35074 33.55200 27248 ft 403 kts 293°
2026-05-06 11:11 32.36297 33.52212 27618 ft 403 kts 293°
2026-05-06 11:12 32.37505 33.49259 27923 ft 405 kts 293°
2026-05-06 11:12 32.38735 33.46248 28205 ft 407 kts 293°
2026-05-06 11:12 32.39970 33.43226 28574 ft 406 kts 293°
2026-05-06 11:12 32.41195 33.40224 29043 ft 404 kts 293°
2026-05-06 11:13 32.42414 33.37235 29524 ft 401 kts 293°
2026-05-06 11:13 32.43628 33.34257 29936 ft 400 kts 293°
2026-05-06 11:13 32.44835 33.31290 30291 ft 400 kts 292°
2026-05-06 11:13 32.46042 33.28321 30608 ft 399 kts 292°
2026-05-06 11:14 32.47246 33.25356 30893 ft 399 kts 292°
2026-05-06 11:14 32.48449 33.22392 31178 ft 399 kts 292°
2026-05-06 11:14 32.49652 33.19425 31483 ft 399 kts 292°
2026-05-06 11:14 32.50838 33.16498 31779 ft 399 kts 292°
2026-05-06 11:15 32.52038 33.13534 32075 ft 398 kts 293°
2026-05-06 11:15 32.52833 33.11569 32270 ft 398 kts 293°
2026-05-06 11:15 32.54432 33.07614 32655 ft 398 kts 293°
2026-05-06 11:15 32.55223 33.05655 32841 ft 398 kts 293°
2026-05-06 11:16 32.56418 33.02694 33103 ft 398 kts 293°
2026-05-06 11:16 32.57611 32.99736 33328 ft 399 kts 293°
2026-05-06 11:16 32.58810 32.96759 33547 ft 400 kts 293°
2026-05-06 11:16 32.60006 32.93786 33822 ft 399 kts 293°
2026-05-06 11:17 32.61203 32.90812 34042 ft 400 kts 293°
2026-05-06 11:17 32.63610 32.84818 34017 ft 403 kts 293°
2026-05-06 11:18 32.66010 32.78837 34016 ft 398 kts 293°
2026-05-06 11:18 32.68378 32.72922 34025 ft 396 kts 293°
2026-05-06 11:19 32.70734 32.67027 34019 ft 395 kts 293°
2026-05-06 11:19 32.73083 32.61137 34022 ft 395 kts 293°
2026-05-06 11:20 32.75431 32.55241 34023 ft 395 kts 293°
2026-05-06 11:20 32.77766 32.49368 34021 ft 396 kts 293°
2026-05-06 11:21 32.80119 32.43441 34023 ft 397 kts 293°
2026-05-06 11:21 32.82717 32.37647 34016 ft 400 kts 302°
2026-05-06 11:22 32.85911 32.32203 34019 ft 401 kts 302°
2026-05-06 11:22 32.89105 32.26739 34018 ft 402 kts 302°
2026-05-06 11:23 32.92288 32.21257 34015 ft 403 kts 302°
2026-05-06 11:23 32.95447 32.15792 34021 ft 403 kts 301°
2026-05-06 11:24 32.98626 32.10281 34028 ft 403 kts 301°
2026-05-06 11:24 33.01791 32.04784 34046 ft 403 kts 302°
2026-05-06 11:25 33.04967 31.99261 34025 ft 403 kts 301°
2026-05-06 11:25 33.08124 31.93761 34017 ft 402 kts 301°
2026-05-06 11:26 33.11286 31.88246 34019 ft 402 kts 301°
2026-05-06 11:26 33.14419 31.82773 34015 ft 401 kts 301°
2026-05-06 11:27 33.17564 31.77270 34014 ft 401 kts 301°
2026-05-06 11:27 33.20703 31.71771 34006 ft 401 kts 301°
2026-05-06 11:28 33.23838 31.66270 34013 ft 400 kts 301°
2026-05-06 11:28 33.26973 31.60760 34004 ft 400 kts 301°
2026-05-06 11:29 33.30085 31.55283 34014 ft 400 kts 301°
2026-05-06 11:29 33.33214 31.49768 34013 ft 400 kts 301°
2026-05-06 11:30 33.36339 31.44252 34007 ft 400 kts 301°
2026-05-06 11:30 33.39464 31.38727 34014 ft 401 kts 301°
2026-05-06 11:31 33.42584 31.33202 34009 ft 401 kts 301°
2026-05-06 11:31 33.45710 31.27659 34011 ft 401 kts 301°
2026-05-06 11:32 33.48831 31.22116 34009 ft 402 kts 302°
2026-05-06 11:32 33.51956 31.16558 34007 ft 402 kts 302°
2026-05-06 11:33 33.55082 31.10991 34010 ft 402 kts 302°
2026-05-06 11:33 33.58183 31.05458 34008 ft 402 kts 302°
2026-05-06 11:34 33.61302 30.99885 34005 ft 402 kts 302°
2026-05-06 11:34 33.64421 30.94304 34015 ft 402 kts 302°
2026-05-06 11:35 33.67532 30.88729 34005 ft 402 kts 302°
2026-05-06 11:35 33.70640 30.83150 34006 ft 402 kts 302°
2026-05-06 11:36 33.73746 30.77567 34012 ft 401 kts 302°
2026-05-06 11:36 33.76829 30.72017 34006 ft 401 kts 302°
2026-05-06 11:37 33.79924 30.66436 34004 ft 401 kts 302°
2026-05-06 11:37 33.83017 30.60849 34007 ft 400 kts 302°
2026-05-06 11:38 33.86104 30.55266 34005 ft 400 kts 302°
2026-05-06 11:38 33.89170 30.49713 34004 ft 400 kts 302°
2026-05-06 11:39 33.92250 30.44123 34034 ft 400 kts 302°
2026-05-06 11:39 33.95327 30.38532 34010 ft 400 kts 302°
2026-05-06 11:40 33.98407 30.32926 34000 ft 400 kts 302°
2026-05-06 11:40 34.01478 30.27328 34003 ft 400 kts 302°
2026-05-06 11:41 34.04526 30.21764 34001 ft 400 kts 302°
2026-05-06 11:41 34.07592 30.16158 34002 ft 400 kts 302°
2026-05-06 11:42 34.10676 30.10509 33994 ft 400 kts 302°
2026-05-06 11:42 34.13710 30.04946 34005 ft 399 kts 302°
2026-05-06 11:43 34.16804 29.99369 34055 ft 399 kts 306°
2026-05-06 11:43 34.20403 29.94234 34073 ft 400 kts 309°
2026-05-06 11:44 34.25904 29.86677 34082 ft 400 kts 309°
2026-05-06 11:44 34.29558 29.81598 34073 ft 400 kts 309°
2026-05-06 11:45 34.33204 29.76496 34111 ft 400 kts 309°
2026-05-06 11:45 34.36845 29.71382 34090 ft 400 kts 309°
2026-05-06 11:46 34.40460 29.66297 34083 ft 400 kts 309°
2026-05-06 11:46 34.44086 29.61188 34083 ft 399 kts 309°
2026-05-06 11:47 34.47710 29.56074 34082 ft 399 kts 309°
2026-05-06 11:47 34.51319 29.50974 34085 ft 398 kts 309°
2026-05-06 11:48 34.54933 29.45860 34080 ft 398 kts 309°
2026-05-06 11:48 34.58527 29.40766 34078 ft 397 kts 309°
2026-05-06 11:49 34.62119 29.35669 34075 ft 397 kts 309°
2026-05-06 11:49 34.65705 29.30573 34094 ft 396 kts 309°
2026-05-06 11:50 34.69266 29.25503 34085 ft 396 kts 309°
2026-05-06 11:50 34.72842 29.20406 34075 ft 396 kts 309°
2026-05-06 11:51 34.76405 29.15320 34079 ft 395 kts 309°
2026-05-06 11:51 34.79950 29.10252 34084 ft 395 kts 309°
2026-05-06 11:52 34.83517 29.05146 34079 ft 395 kts 309°
2026-05-06 11:52 34.87070 29.00051 34075 ft 395 kts 309°
2026-05-06 11:53 34.90630 28.94939 34058 ft 395 kts 309°
2026-05-06 11:53 34.94159 28.89865 34066 ft 395 kts 309°
2026-05-06 11:54 34.97708 28.84754 34074 ft 395 kts 309°
2026-05-06 11:54 35.01262 28.79628 34073 ft 395 kts 309°
2026-05-06 11:55 35.04808 28.74507 34096 ft 395 kts 309°
2026-05-06 11:55 35.08364 28.69363 34077 ft 396 kts 309°
2026-05-06 11:56 35.11911 28.64225 34064 ft 396 kts 309°
2026-05-06 11:56 35.15451 28.59089 34072 ft 395 kts 309°
2026-05-06 11:57 35.18971 28.53975 34076 ft 395 kts 309°
2026-05-06 11:57 35.22515 28.48819 34069 ft 395 kts 309°
2026-05-06 11:58 35.26048 28.43670 34073 ft 395 kts 309°
2026-05-06 11:58 35.29581 28.38514 34082 ft 395 kts 309°
2026-05-06 11:59 35.32543 28.34185 34063 ft 395 kts 309°
2026-05-06 11:59 35.36047 28.29057 34073 ft 395 kts 309°
2026-05-06 12:00 35.39569 28.23897 34080 ft 394 kts 309°
2026-05-06 12:00 35.43090 28.18727 34087 ft 395 kts 309°
2026-05-06 12:01 35.46610 28.13554 34078 ft 395 kts 309°
2026-05-06 12:01 35.50123 28.08382 34072 ft 394 kts 309°
2026-05-06 12:02 35.53618 28.03229 34060 ft 394 kts 309°
2026-05-06 12:02 35.57121 27.98056 34070 ft 394 kts 309°
2026-05-06 12:03 35.60625 27.92875 34075 ft 393 kts 309°
2026-05-06 12:03 35.64139 27.87670 34071 ft 393 kts 309°
2026-05-06 12:04 35.67636 27.82482 34070 ft 393 kts 309°
2026-05-06 12:04 35.71108 27.77325 34077 ft 394 kts 309°
2026-05-06 12:05 35.74608 27.72117 34071 ft 394 kts 309°
2026-05-06 12:05 35.78100 27.66914 34081 ft 394 kts 309°
2026-05-06 12:06 35.81588 27.61708 34062 ft 394 kts 309°
2026-05-06 12:06 35.85090 27.56475 34079 ft 394 kts 309°
2026-05-06 12:07 35.88570 27.51266 34073 ft 394 kts 309°
2026-05-06 12:07 35.92027 27.46082 34074 ft 394 kts 309°
2026-05-06 12:08 35.95509 27.40853 34078 ft 393 kts 309°
2026-05-06 12:08 35.98986 27.35626 34083 ft 394 kts 309°
2026-05-06 12:09 36.02460 27.30394 34082 ft 394 kts 309°
2026-05-06 12:09 36.05935 27.25151 34086 ft 394 kts 309°
2026-05-06 12:10 36.09385 27.19940 34081 ft 394 kts 309°
2026-05-06 12:10 36.12855 27.14690 34082 ft 395 kts 309°
2026-05-06 12:11 36.16337 27.09413 34085 ft 395 kts 309°
2026-05-06 12:11 36.19827 27.04115 34081 ft 396 kts 309°
2026-05-06 12:12 36.23281 26.98865 34095 ft 396 kts 309°
2026-05-06 12:12 36.26767 26.93558 34095 ft 396 kts 309°
2026-05-06 12:13 36.30252 26.88244 34081 ft 397 kts 309°
2026-05-06 12:13 36.33730 26.82933 34080 ft 397 kts 308°
2026-05-06 12:14 36.37189 26.77641 34088 ft 397 kts 308°
2026-05-06 12:14 36.40677 26.72297 34095 ft 398 kts 308°
2026-05-06 12:15 36.44171 26.66936 34093 ft 399 kts 308°
2026-05-06 12:15 36.47666 26.61564 34110 ft 400 kts 309°
2026-05-06 12:16 36.51163 26.56181 34081 ft 400 kts 309°
2026-05-06 12:16 36.54662 26.50787 34090 ft 400 kts 309°
2026-05-06 12:17 36.58140 26.45415 34092 ft 400 kts 309°
2026-05-06 12:17 36.61635 26.40010 34096 ft 400 kts 308°
2026-05-06 12:18 36.65134 26.34588 34094 ft 401 kts 308°
2026-05-06 12:18 36.68627 26.29168 34096 ft 401 kts 308°
2026-05-06 12:19 36.72094 26.23779 34085 ft 401 kts 308°
2026-05-06 12:19 36.75577 26.18358 34094 ft 401 kts 308°
2026-05-06 12:20 36.79065 26.12918 34096 ft 401 kts 308°
2026-05-06 12:20 36.82544 26.07484 34107 ft 401 kts 309°
2026-05-06 12:21 36.86031 26.02030 34094 ft 401 kts 309°
2026-05-06 12:21 36.89504 25.96588 34097 ft 401 kts 308°
2026-05-06 12:22 36.92962 25.91161 34086 ft 402 kts 308°
2026-05-06 12:22 36.96479 25.85633 34253 ft 409 kts 308°
2026-05-06 12:23 36.98248 25.82848 34503 ft 408 kts 308°
2026-05-06 12:23 37.00001 25.80085 34824 ft 405 kts 308°
2026-05-06 12:23 37.01754 25.77322 35111 ft 404 kts 308°
2026-05-06 12:23 37.03500 25.74568 35337 ft 404 kts 308°
2026-05-06 12:24 37.05246 25.71810 35552 ft 403 kts 308°
2026-05-06 12:24 37.06986 25.69059 35810 ft 402 kts 308°
2026-05-06 12:24 37.08723 25.66312 36057 ft 401 kts 308°
2026-05-06 12:24 37.10455 25.63570 36067 ft 404 kts 308°
2026-05-06 12:25 37.13955 25.58022 36087 ft 406 kts 308°
2026-05-06 12:25 37.17420 25.52520 36103 ft 403 kts 308°
2026-05-06 12:26 37.20885 25.47008 36099 ft 402 kts 308°
2026-05-06 12:26 37.24342 25.41503 36099 ft 401 kts 308°
2026-05-06 12:27 37.27976 25.36205 36095 ft 400 kts 317°
2026-05-06 12:27 37.32428 25.32112 36069 ft 401 kts 324°
2026-05-06 12:28 37.37096 25.28194 36091 ft 401 kts 324°
2026-05-06 12:28 37.41744 25.24265 36088 ft 403 kts 324°
2026-05-06 12:29 37.46403 25.20301 36107 ft 404 kts 324°
2026-05-06 12:29 37.51036 25.16345 36097 ft 406 kts 324°
2026-05-06 12:30 37.55726 25.12332 36097 ft 407 kts 324°
2026-05-06 12:30 37.60426 25.08304 36096 ft 408 kts 324°
2026-05-06 12:31 37.65123 25.04272 36095 ft 409 kts 324°
2026-05-06 12:31 37.69815 25.00239 36075 ft 409 kts 324°
2026-05-06 12:32 37.74513 24.96195 36089 ft 408 kts 324°
2026-05-06 12:32 37.79211 24.92144 36071 ft 408 kts 324°
2026-05-06 12:33 37.83891 24.88103 36066 ft 406 kts 324°
2026-05-06 12:33 37.88548 24.84074 36084 ft 405 kts 324°
2026-05-06 12:34 37.93183 24.80058 36075 ft 405 kts 324°
2026-05-06 12:34 37.97822 24.76034 36070 ft 404 kts 324°
2026-05-06 12:35 38.02461 24.72001 36073 ft 404 kts 324°
2026-05-06 12:35 38.07105 24.67959 36078 ft 405 kts 324°
2026-05-06 12:36 38.11765 24.63897 36074 ft 406 kts 324°
2026-05-06 12:36 38.16394 24.59855 36074 ft 406 kts 324°
2026-05-06 12:37 38.21049 24.55784 36074 ft 407 kts 324°
2026-05-06 12:37 38.25723 24.51689 36092 ft 407 kts 324°
2026-05-06 12:38 38.30392 24.47594 36076 ft 408 kts 324°
2026-05-06 12:38 38.35064 24.43489 36067 ft 408 kts 324°
2026-05-06 12:39 38.39721 24.39390 36071 ft 407 kts 324°
2026-05-06 12:39 38.44391 24.35273 36061 ft 407 kts 324°
2026-05-06 12:40 38.49047 24.31163 36069 ft 406 kts 324°
2026-05-06 12:40 38.53665 24.27078 36079 ft 407 kts 324°
2026-05-06 12:41 38.58332 24.22944 36068 ft 407 kts 324°
2026-05-06 12:41 38.62982 24.18819 36069 ft 407 kts 324°
2026-05-06 12:42 38.66853 24.15380 36072 ft 407 kts 324°
2026-05-06 12:42 38.71503 24.11242 36069 ft 407 kts 324°
2026-05-06 12:43 38.76144 24.07106 36064 ft 407 kts 324°
2026-05-06 12:43 38.80795 24.02954 36079 ft 407 kts 323°
2026-05-06 12:44 38.85436 23.98804 36065 ft 407 kts 323°
2026-05-06 12:44 38.90094 23.94633 36064 ft 408 kts 323°
2026-05-06 12:45 38.94721 23.90482 36068 ft 408 kts 323°
2026-05-06 12:46 39.01711 23.84200 36062 ft 409 kts 323°
2026-05-06 12:46 39.06376 23.79997 36065 ft 409 kts 323°
2026-05-06 12:47 39.11032 23.75797 36052 ft 409 kts 323°
2026-05-06 12:47 39.15693 23.71585 36047 ft 409 kts 323°
2026-05-06 12:48 39.20352 23.67368 36048 ft 409 kts 323°
2026-05-06 12:48 39.25014 23.63140 36056 ft 409 kts 323°
2026-05-06 12:49 39.29665 23.58917 36054 ft 409 kts 323°
2026-05-06 12:49 39.34314 23.54688 36058 ft 409 kts 323°
2026-05-06 12:50 39.38978 23.50438 36066 ft 409 kts 323°
2026-05-06 12:50 39.43624 23.46197 36056 ft 409 kts 323°
2026-05-06 12:51 39.48236 23.41981 36050 ft 409 kts 323°
2026-05-06 12:51 39.52884 23.37725 36059 ft 409 kts 323°
2026-05-06 12:52 39.57528 23.33464 36069 ft 409 kts 323°
2026-05-06 12:52 39.62173 23.29196 36062 ft 410 kts 323°
2026-05-06 12:53 39.66836 23.24905 36059 ft 410 kts 323°
2026-05-06 12:53 39.71498 23.20607 36061 ft 410 kts 323°
2026-05-06 12:54 39.76121 23.16337 36054 ft 410 kts 323°
2026-05-06 12:54 39.80783 23.12025 36054 ft 411 kts 323°
2026-05-06 12:55 39.85432 23.07717 36051 ft 411 kts 323°
2026-05-06 12:55 39.90091 23.03392 36062 ft 411 kts 322°
2026-05-06 12:56 39.94748 22.99063 36061 ft 411 kts 322°
2026-05-06 12:56 39.99406 22.94724 36050 ft 411 kts 322°
2026-05-06 12:57 40.04060 22.90382 36044 ft 412 kts 322°
2026-05-06 12:57 40.08728 22.86020 36052 ft 412 kts 322°
2026-05-06 12:58 40.13366 22.81677 36047 ft 412 kts 322°
2026-05-06 12:58 40.18021 22.77312 36027 ft 412 kts 322°
2026-05-06 12:59 40.22677 22.72939 36044 ft 412 kts 322°
2026-05-06 12:59 40.27332 22.68558 36037 ft 412 kts 322°
2026-05-06 13:00 40.31991 22.64166 36040 ft 413 kts 322°
2026-05-06 13:00 40.36657 22.59760 36039 ft 413 kts 322°
2026-05-06 13:01 40.41315 22.55354 36034 ft 414 kts 322°
2026-05-06 13:01 40.45959 22.50953 36030 ft 414 kts 322°
2026-05-06 13:02 40.50658 22.46492 36023 ft 414 kts 322°
2026-05-06 13:02 40.55331 22.42049 36014 ft 415 kts 322°
2026-05-06 13:03 40.60014 22.37587 36020 ft 415 kts 322°
2026-05-06 13:03 40.64691 22.33124 36017 ft 415 kts 322°
2026-05-06 13:04 40.69370 22.28650 36018 ft 416 kts 322°
2026-05-06 13:04 40.74033 22.24185 36018 ft 416 kts 322°
2026-05-06 13:05 40.78707 22.19701 36019 ft 416 kts 322°
2026-05-06 13:05 40.83404 22.15186 36024 ft 416 kts 322°
2026-05-06 13:06 40.88087 22.10677 36017 ft 417 kts 321°
2026-05-06 13:06 40.92784 22.06145 36023 ft 417 kts 321°
2026-05-06 13:07 40.97470 22.01617 36022 ft 417 kts 321°
2026-05-06 13:07 41.02125 21.97110 36016 ft 418 kts 321°
2026-05-06 13:08 41.06787 21.92418 36015 ft 415 kts 315°
2026-05-06 13:08 41.10430 21.86561 36051 ft 413 kts 303°
2026-05-06 13:09 41.13604 21.80252 36028 ft 414 kts 303°
2026-05-06 13:09 41.16797 21.73907 36015 ft 415 kts 302°
2026-05-06 13:10 41.20023 21.67531 36009 ft 415 kts 303°
2026-05-06 13:10 41.23255 21.61155 36021 ft 416 kts 303°
2026-05-06 13:11 41.26490 21.54765 36023 ft 416 kts 303°
2026-05-06 13:11 41.29724 21.48363 36013 ft 417 kts 303°
2026-05-06 13:12 41.32953 21.41957 36013 ft 417 kts 302°
2026-05-06 13:12 41.36157 21.35588 36022 ft 416 kts 302°
2026-05-06 13:13 41.39378 21.29171 36021 ft 416 kts 302°
2026-05-06 13:13 41.42596 21.22748 36031 ft 416 kts 302°
2026-05-06 13:14 41.45803 21.16330 36027 ft 416 kts 302°
2026-05-06 13:14 41.49011 21.09899 36028 ft 416 kts 302°
2026-05-06 13:15 41.52211 21.03469 36035 ft 416 kts 302°
2026-05-06 13:15 41.55385 20.97080 36038 ft 416 kts 302°
2026-05-06 13:16 41.58585 20.90624 36034 ft 415 kts 302°
2026-05-06 13:16 41.61765 20.84195 36047 ft 415 kts 302°
2026-05-06 13:17 41.64918 20.77805 36047 ft 415 kts 301°
2026-05-06 13:17 41.68096 20.71353 36055 ft 415 kts 301°
2026-05-06 13:18 41.71266 20.64902 36056 ft 416 kts 301°
2026-05-06 13:18 41.74449 20.58412 36067 ft 416 kts 301°
2026-05-06 13:19 41.77596 20.51985 36065 ft 415 kts 301°
2026-05-06 13:19 41.80785 20.45500 36070 ft 416 kts 301°
2026-05-06 13:20 41.83967 20.39026 36071 ft 416 kts 301°
2026-05-06 13:20 41.86618 20.33618 36084 ft 417 kts 301°
2026-05-06 13:21 41.89807 20.27098 36087 ft 417 kts 301°
2026-05-06 13:21 41.92988 20.20578 36084 ft 417 kts 301°
2026-05-06 13:22 41.96168 20.14046 36073 ft 418 kts 301°
2026-05-06 13:22 41.99321 20.07556 36086 ft 417 kts 301°
2026-05-06 13:23 42.02498 20.01002 36080 ft 418 kts 301°
2026-05-06 13:23 42.05665 19.94456 36076 ft 417 kts 300°
2026-05-06 13:24 42.08840 19.87877 36088 ft 417 kts 300°
2026-05-06 13:24 42.11980 19.81358 36094 ft 417 kts 300°
2026-05-06 13:25 42.15136 19.74789 36082 ft 417 kts 300°
2026-05-06 13:25 42.18291 19.68210 36084 ft 417 kts 300°
2026-05-06 13:26 42.21436 19.61636 36077 ft 417 kts 300°
2026-05-06 13:26 42.24583 19.55045 36082 ft 418 kts 300°
2026-05-06 13:27 42.27709 19.48480 36093 ft 417 kts 300°
2026-05-06 13:27 42.30849 19.41875 36097 ft 418 kts 300°
2026-05-06 13:28 42.33988 19.35255 36109 ft 418 kts 300°
2026-05-06 13:28 42.37124 19.28629 36098 ft 418 kts 300°
2026-05-06 13:29 42.40245 19.21984 36108 ft 418 kts 299°
2026-05-06 13:29 42.43309 19.15332 36103 ft 418 kts 299°
2026-05-06 13:30 42.46380 19.08638 36095 ft 418 kts 299°
2026-05-06 13:30 42.49448 19.01946 36093 ft 418 kts 298°
2026-05-06 13:31 42.52523 18.95230 36093 ft 419 kts 299°
2026-05-06 13:31 42.55581 18.88537 36074 ft 420 kts 298°
2026-05-06 13:32 42.58663 18.81779 36077 ft 421 kts 298°
2026-05-06 13:32 42.61739 18.75016 36081 ft 421 kts 298°
2026-05-06 13:33 42.64805 18.68261 36092 ft 421 kts 298°
2026-05-06 13:33 42.67877 18.61479 36086 ft 421 kts 298°
2026-05-06 13:34 42.70946 18.54686 36096 ft 421 kts 298°
2026-05-06 13:34 42.74006 18.47897 36087 ft 421 kts 298°
2026-05-06 13:35 42.77054 18.41119 36099 ft 420 kts 298°
2026-05-06 13:35 42.80105 18.34318 36099 ft 420 kts 298°
2026-05-06 13:36 42.83132 18.27555 36081 ft 422 kts 298°
2026-05-06 13:36 42.86184 18.20723 36078 ft 421 kts 298°
2026-05-06 13:37 42.89230 18.13886 36070 ft 421 kts 298°
2026-05-06 13:37 42.92246 18.07104 36069 ft 421 kts 298°
2026-05-06 13:38 42.95572 18.00440 36072 ft 423 kts 303°
2026-05-06 13:38 42.99123 17.94098 36064 ft 423 kts 304°
2026-05-06 13:39 43.02687 17.87713 36069 ft 423 kts 303°
2026-05-06 13:39 43.06200 17.81324 36068 ft 423 kts 303°
2026-05-06 13:40 43.09733 17.74845 36050 ft 423 kts 303°
2026-05-06 13:40 43.13247 17.68383 36042 ft 424 kts 303°
2026-05-06 13:41 43.16763 17.61903 36039 ft 424 kts 303°
2026-05-06 13:41 43.20280 17.55410 36060 ft 424 kts 303°
2026-05-06 13:42 43.23801 17.48895 36051 ft 425 kts 303°
2026-05-06 13:42 43.27323 17.42364 36030 ft 426 kts 303°
2026-05-06 13:43 43.30829 17.35848 36041 ft 425 kts 302°
2026-05-06 13:43 43.34331 17.29325 36047 ft 423 kts 302°
2026-05-06 13:44 43.37256 17.22368 36060 ft 419 kts 292°
2026-05-06 13:44 43.39781 17.15172 36045 ft 420 kts 292°
2026-05-06 13:45 43.42323 17.07932 36061 ft 420 kts 292°
2026-05-06 13:45 43.46178 16.97071 36029 ft 422 kts 292°
2026-05-06 13:46 43.48764 16.89804 36033 ft 422 kts 292°
2026-05-06 13:46 43.51347 16.82531 36049 ft 423 kts 292°
2026-05-06 13:47 43.53922 16.75259 36038 ft 423 kts 292°
2026-05-06 13:47 43.56498 16.67964 36037 ft 424 kts 292°
2026-05-06 13:48 43.59080 16.60636 36025 ft 423 kts 292°
2026-05-06 13:48 43.61648 16.53325 36025 ft 423 kts 291°
2026-05-06 13:49 43.64201 16.46036 36018 ft 422 kts 291°
2026-05-06 13:49 43.66736 16.38782 36017 ft 422 kts 291°
2026-05-06 13:50 43.69278 16.31487 36018 ft 421 kts 291°
2026-05-06 13:50 43.71811 16.24197 36013 ft 420 kts 291°
2026-05-06 13:51 43.74338 16.16906 36000 ft 420 kts 291°
2026-05-06 13:51 43.76863 16.09602 35998 ft 420 kts 291°
2026-05-06 13:52 43.79359 16.02359 36001 ft 420 kts 291°
2026-05-06 13:52 43.81874 15.95045 36001 ft 420 kts 290°
2026-05-06 13:53 43.84381 15.87733 35992 ft 420 kts 290°
2026-05-06 13:53 43.86880 15.80426 35991 ft 419 kts 290°
2026-05-06 13:54 43.89374 15.73112 35986 ft 419 kts 290°
2026-05-06 13:54 43.91842 15.65857 35993 ft 419 kts 290°
2026-05-06 13:55 43.94324 15.58540 35998 ft 418 kts 290°
2026-05-06 13:55 43.96800 15.51220 35981 ft 419 kts 290°
2026-05-06 13:56 43.99271 15.43895 35990 ft 418 kts 290°
2026-05-06 13:56 44.01741 15.36553 36005 ft 418 kts 290°
2026-05-06 13:57 44.04208 15.29198 36006 ft 420 kts 290°
2026-05-06 13:57 44.06673 15.21832 35992 ft 420 kts 290°
2026-05-06 13:58 44.09115 15.14516 35992 ft 419 kts 290°
2026-05-06 13:58 44.11559 15.07172 35979 ft 418 kts 289°
2026-05-06 13:59 44.13993 14.99837 35969 ft 416 kts 289°
2026-05-06 13:59 44.16007 14.93755 35969 ft 416 kts 289°
2026-05-06 14:00 44.18815 14.85247 35972 ft 414 kts 289°
2026-05-06 14:00 44.20804 14.79207 35972 ft 412 kts 289°
2026-05-06 14:01 44.23587 14.70730 35963 ft 410 kts 289°
2026-05-06 14:01 44.25541 14.64759 35957 ft 410 kts 289°
2026-05-06 14:02 44.27906 14.57517 35965 ft 410 kts 289°
2026-05-06 14:02 44.30276 14.50237 35973 ft 412 kts 289°
2026-05-06 14:03 44.32644 14.42944 35954 ft 414 kts 289°
2026-05-06 14:03 44.35021 14.35610 35947 ft 415 kts 289°
2026-05-06 14:04 44.36231 14.31879 35481 ft 422 kts 290°
2026-05-06 14:04 44.37648 14.28297 35090 ft 423 kts 298°
2026-05-06 14:04 44.39374 14.24953 34689 ft 420 kts 300°
2026-05-06 14:04 44.41101 14.21692 34275 ft 416 kts 300°
2026-05-06 14:05 44.42814 14.18459 33852 ft 411 kts 300°
2026-05-06 14:05 44.44492 14.15278 33406 ft 407 kts 300°
2026-05-06 14:05 44.46154 14.12104 32987 ft 402 kts 300°
2026-05-06 14:05 44.47795 14.08955 32556 ft 398 kts 299°
2026-05-06 14:06 44.49415 14.05831 32169 ft 394 kts 299°
2026-05-06 14:06 44.51016 14.02737 31785 ft 390 kts 299°
2026-05-06 14:06 44.52600 13.99668 31395 ft 387 kts 299°
2026-05-06 14:06 44.54174 13.96615 30990 ft 384 kts 299°
2026-05-06 14:07 44.55735 13.93584 30606 ft 381 kts 299°
2026-05-06 14:07 44.57259 13.90620 30234 ft 379 kts 299°
2026-05-06 14:07 44.58795 13.87633 29832 ft 376 kts 299°
2026-05-06 14:07 44.60321 13.84661 29395 ft 374 kts 299°
2026-05-06 14:08 44.61833 13.81713 28990 ft 370 kts 299°
2026-05-06 14:08 44.63332 13.78790 28603 ft 367 kts 299°
2026-05-06 14:08 44.64820 13.75886 28208 ft 365 kts 299°
2026-05-06 14:08 44.66294 13.73003 27813 ft 362 kts 299°
2026-05-06 14:09 44.67763 13.70128 27443 ft 360 kts 298°
2026-05-06 14:09 44.69222 13.67270 27052 ft 358 kts 298°
2026-05-06 14:09 44.70673 13.64424 26664 ft 356 kts 298°
2026-05-06 14:09 44.72088 13.61648 26293 ft 354 kts 298°
2026-05-06 14:10 44.73520 13.58834 25917 ft 351 kts 298°
2026-05-06 14:10 44.74939 13.56043 25552 ft 349 kts 298°
2026-05-06 14:10 44.76348 13.53269 25178 ft 348 kts 298°
2026-05-06 14:10 44.77752 13.50502 24813 ft 346 kts 298°
2026-05-06 14:11 44.79151 13.47742 24430 ft 347 kts 299°
2026-05-06 14:11 44.80552 13.44973 24045 ft 348 kts 299°
2026-05-06 14:11 44.81959 13.42190 23661 ft 351 kts 299°
2026-05-06 14:11 44.83397 13.39338 23252 ft 359 kts 299°
2026-05-06 14:12 44.84846 13.36468 22826 ft 359 kts 299°
2026-05-06 14:12 44.86269 13.33653 22417 ft 356 kts 299°
2026-05-06 14:12 44.87706 13.30807 22032 ft 354 kts 299°
2026-05-06 14:12 44.89120 13.28003 21655 ft 351 kts 299°
2026-05-06 14:13 44.90531 13.25199 21283 ft 348 kts 299°
2026-05-06 14:13 44.91922 13.22432 20921 ft 345 kts 299°
2026-05-06 14:13 44.93315 13.19657 20542 ft 343 kts 299°
2026-05-06 14:13 44.94687 13.16923 20178 ft 340 kts 300°
2026-05-06 14:14 44.96049 13.14204 19823 ft 338 kts 300°
2026-05-06 14:14 44.97412 13.11484 19466 ft 336 kts 300°
2026-05-06 14:14 44.98642 13.08745 19114 ft 330 kts 291°
2026-05-06 14:14 44.99500 13.05745 18865 ft 322 kts 284°
2026-05-06 14:15 45.00223 13.02803 18625 ft 320 kts 284°
2026-05-06 14:15 45.00943 12.99839 18389 ft 317 kts 284°
2026-05-06 14:15 45.01656 12.96904 18153 ft 315 kts 284°
2026-05-06 14:15 45.02372 12.93974 17800 ft 313 kts 284°
2026-05-06 14:16 45.03082 12.91079 17472 ft 310 kts 284°
2026-05-06 14:16 45.03787 12.88211 17124 ft 308 kts 284°
2026-05-06 14:16 45.04487 12.85362 16793 ft 306 kts 284°
2026-05-06 14:16 45.05186 12.82518 16453 ft 306 kts 284°
2026-05-06 14:17 45.05884 12.79677 16221 ft 307 kts 284°
2026-05-06 14:17 45.06588 12.76800 15980 ft 312 kts 284°
2026-05-06 14:17 45.07304 12.73876 15745 ft 315 kts 284°
2026-05-06 14:17 45.08014 12.70981 15497 ft 314 kts 284°
2026-05-06 14:18 45.08729 12.68066 15246 ft 313 kts 284°
2026-05-06 14:18 45.09439 12.65161 15000 ft 312 kts 284°
2026-05-06 14:18 45.10148 12.62262 14757 ft 311 kts 284°
2026-05-06 14:18 45.10733 12.59339 14426 ft 307 kts 273°
2026-05-06 14:19 45.10873 12.56341 14075 ft 303 kts 267°
2026-05-06 14:19 45.10934 12.53365 13731 ft 301 kts 267°
2026-05-06 14:19 45.10992 12.50422 13360 ft 299 kts 267°
2026-05-06 14:19 45.11057 12.47481 13017 ft 296 kts 267°
2026-05-06 14:20 45.11130 12.44589 12699 ft 293 kts 268°
2026-05-06 14:20 45.11207 12.41726 12402 ft 289 kts 268°
2026-05-06 14:20 45.11286 12.38885 12082 ft 287 kts 268°
2026-05-06 14:20 45.11366 12.36076 11798 ft 284 kts 268°
2026-05-06 14:21 45.11447 12.33285 11509 ft 284 kts 268°
2026-05-06 14:21 45.11527 12.30515 11298 ft 285 kts 268°
2026-05-06 14:21 45.11607 12.27695 11070 ft 288 kts 268°
2026-05-06 14:21 45.11687 12.24823 10656 ft 296 kts 269°
2026-05-06 14:22 45.11771 12.21885 10283 ft 296 kts 268°
2026-05-06 14:22 45.11855 12.19008 10041 ft 290 kts 268°
2026-05-06 14:22 45.11937 12.16181 9802 ft 285 kts 268°
2026-05-06 14:22 45.12015 12.13402 9534 ft 280 kts 268°
2026-05-06 14:23 45.12127 12.10667 9305 ft 276 kts 275°
2026-05-06 14:23 45.12867 12.08156 8631 ft 291 kts 304°
2026-05-06 14:23 45.14403 12.06242 7997 ft 301 kts 325°
2026-05-06 14:23 45.16380 12.05145 7316 ft 309 kts 345°
2026-05-06 14:24 45.18539 12.05058 6655 ft 315 kts
2026-05-06 14:24 45.20640 12.05979 6013 ft 316 kts 19°
2026-05-06 14:24 45.22689 12.07115 5327 ft 316 kts 20°
2026-05-06 14:24 45.24715 12.08261 4950 ft 305 kts 20°
2026-05-06 14:25 45.26641 12.09334 4741 ft 290 kts 20°
2026-05-06 14:25 45.28476 12.10339 4593 ft 274 kts 19°
2026-05-06 14:25 45.30226 12.11289 4336 ft 265 kts 19°
2026-05-06 14:25 45.31895 12.12193 4092 ft 256 kts 19°
2026-05-06 14:26 45.33500 12.13282 3829 ft 250 kts 34°
2026-05-06 14:26 45.34806 12.14813 3605 ft 243 kts 43°
2026-05-06 14:26 45.36027 12.16437 3499 ft 228 kts 43°
2026-05-06 14:26 45.37150 12.17918 3227 ft 219 kts 43°
2026-05-06 14:27 45.38255 12.19353 2943 ft 212 kts 43°
2026-05-06 14:27 45.39324 12.20736 2671 ft 205 kts 43°
2026-05-06 14:27 45.40346 12.22056 2401 ft 194 kts 44°
2026-05-06 14:27 45.41310 12.23301 2154 ft 181 kts 44°
2026-05-06 14:28 45.42224 12.24483 1910 ft 173 kts 45°
2026-05-06 14:28 45.43088 12.25601 1702 ft 165 kts 45°
2026-05-06 14:28 45.43922 12.26679 1497 ft 158 kts 44°
2026-05-06 14:28 45.44736 12.27731 1297 ft 160 kts 45°
2026-05-06 14:29 45.45560 12.28795 1050 ft 159 kts 46°
2026-05-06 14:29 45.46373 12.29847 830 ft 157 kts 45°
2026-05-06 14:29 45.47178 12.30878 654 ft 155 kts 45°
2026-05-06 14:29 45.47977 12.31893 404 ft 152 kts 44°
2026-05-06 14:30 45.48731 12.32882 240 ft 145 kts 46°
2026-05-06 14:30 45.49470 12.33841 44 ft 142 kts 45°
2026-05-06 14:30 45.50149 12.34722 16 ft 113 kts 42°
2026-05-06 14:30 45.50580 12.35274 13 ft 65 kts 43°
2026-05-06 14:31 45.50844 12.35618 16 ft 42 kts 40°
2026-05-06 14:31 45.51012 12.35803 16 ft 28 kts 31°
2026-05-06 14:31 45.51179 12.35873 13 ft 18 kts
2026-05-06 14:31 45.51231 12.35869 13 ft 1 kts 341°
2026-05-06 14:32 45.51239 12.35863 13 ft 6 kts 327°
2026-05-06 14:32 45.51250 12.35770 15 ft 12 kts 233°
2026-05-06 14:32 45.51186 12.35696 15 ft 12 kts 219°
2026-05-06 14:32 45.51087 12.35572 15 ft 27 kts 222°
2026-05-06 14:33 45.51000 12.35445 17 ft 13 kts 238°
2026-05-06 14:33 45.50972 12.35323 17 ft 13 kts 257°
2026-05-06 14:33 45.50947 12.35204 17 ft 12 kts 240°
2026-05-06 14:33 45.50887 12.35117 15 ft 12 kts 219°
2026-05-06 14:34 45.50826 12.35036 15 ft 12 kts 224°
2026-05-06 14:34 45.50762 12.34956 15 ft 13 kts 221°
2026-05-06 14:34 45.50696 12.34871 15 ft 13 kts 223°
2026-05-06 14:34 45.50631 12.34788 15 ft 12 kts 227°
2026-05-06 14:35 45.50604 12.34675 17 ft 12 kts 264°
2026-05-06 14:35 45.50599 12.34557 15 ft 12 kts 266°
2026-05-06 14:35 45.50596 12.34458 15 ft 3 kts 267°
2026-05-06 14:35 45.50601 12.34404 15 ft 13 kts 290°
2026-05-06 14:36 45.50617 12.34288 15 ft 6 kts 265°
2026-05-06 14:36 45.50614 12.34234 15 ft 5 kts 268°
2026-05-06 14:36 45.50613 12.34197 15 ft 0 kts 268°